| time (UTC) | temp F | wind direction | speed MPH | gust MPH | rain 1hr in | rain 24hr in | rain mn in | humidity % | barometer mb |
| 20260904145007 | 80 | 270 | 10.0 | 16.0 | 0.00 | 0.00 | 0.00 | 54 | 1009.7 |
| 20260904144009 | 80 | 270 | 10.0 | 16.0 | 0.00 | 0.00 | 0.00 | 56 | 1009.8 |
| 20260904143013 | 80 | 270 | 11.0 | 17.0 | 0.00 | 0.00 | 0.00 | 56 | 1009.9 |
| 20260904142009 | 81 | 270 | 6.0 | 10.0 | 0.00 | 0.00 | 0.00 | 59 | 1010.1 |
| 20260904141010 | 79 | 270 | 5.0 | 10.0 | 0.00 | 0.00 | 0.00 | 59 | 1010.1 |
| 20260904140018 | 80 | 0 | 7.0 | 11.0 | 0.00 | 0.00 | 0.00 | 59 | 1010.4 |
| 20260904135009 | 80 | 270 | 8.0 | 11.0 | 0.00 | 0.00 | 0.00 | 61 | 1010.7 |
| 20260904134007 | 79 | 270 | 7.0 | 11.0 | 0.00 | 0.00 | 0.00 | 61 | 1010.8 |
| 20260904133013 | 79 | 270 | 5.0 | 9.0 | 0.00 | 0.00 | 0.00 | 63 | 1011.0 |
| 20260904132008 | 78 | 270 | 6.0 | 9.0 | 0.00 | 0.00 | 0.00 | 62 | 1011.2 |
| 20260904131007 | 78 | 270 | 8.0 | 11.0 | 0.00 | 0.00 | 0.00 | 63 | 1011.3 |
| 20260904130014 | 78 | 270 | 10.0 | 15.0 | 0.00 | 0.00 | 0.00 | 62 | 1011.3 |
| 20260904125009 | 79 | 270 | 11.0 | 17.0 | 0.00 | 0.00 | 0.00 | 61 | 1011.6 |
| 20260904124010 | 78 | 0 | 11.0 | 16.0 | 0.00 | 0.00 | 0.00 | 62 | 1011.7 |
| 20260904123008 | 78 | 270 | 11.0 | 18.0 | 0.00 | 0.00 | 0.00 | 61 | 1011.9 |
| 20260904122007 | 78 | 270 | 7.0 | 11.0 | 0.00 | 0.00 | 0.00 | 61 | 1012.0 |
| 20260904121007 | 78 | 225 | 8.0 | 12.0 | 0.00 | 0.00 | 0.00 | 62 | 1012.0 |
| 20260904120010 | 79 | 180 | 7.0 | 11.0 | 0.00 | 0.00 | 0.00 | 61 | 1012.1 |
| 20260904115012 | 78 | 270 | 11.0 | 15.0 | 0.00 | 0.00 | 0.00 | 62 | 1012.4 |
| 20260904114008 | 81 | 270 | 12.0 | 19.0 | 0.00 | 0.00 | 0.00 | 58 | 1012.1 |
| 20260904113008 | 80 | 270 | 11.0 | 16.0 | 0.00 | 0.00 | 0.00 | 60 | 1012.4 |
| 20260904112008 | 79 | 270 | 11.0 | 16.0 | 0.00 | 0.00 | 0.00 | 61 | 1012.6 |
| 20260904111009 | 79 | 270 | 9.0 | 15.0 | 0.00 | 0.00 | 0.00 | 65 | 1012.7 |
| 20260904110015 | 76 | 225 | 9.0 | 13.0 | 0.00 | 0.00 | 0.00 | 68 | 1013.1 |
| 20260904105008 | 76 | 270 | 8.0 | 15.0 | 0.00 | 0.00 | 0.00 | 65 | 1013.3 |
| 20260904104013 | 77 | 270 | 10.0 | 16.0 | 0.00 | 0.00 | 0.00 | 65 | 1013.3 |
| 20260904102013 | 77 | 270 | 8.0 | 12.0 | 0.00 | 0.00 | 0.00 | 63 | 1013.3 |
| 20260904101008 | 78 | 270 | 11.0 | 16.0 | 0.00 | 0.00 | 0.00 | 62 | 1013.5 |
| 20260904100013 | 79 | 225 | 9.0 | 14.0 | 0.00 | 0.00 | 0.00 | 63 | 1013.3 |
| 20260904095011 | 78 | 270 | 10.0 | 15.0 | 0.00 | 0.00 | 0.00 | 61 | 1013.7 |
| 20260904094011 | 78 | 225 | 8.0 | 13.0 | 0.00 | 0.00 | 0.00 | 62 | 1013.9 |
| 20260904093012 | 76 | 225 | 10.0 | 15.0 | 0.00 | 0.00 | 0.00 | 68 | 1014.3 |
| 20260904092008 | 75 | 270 | 8.0 | 13.0 | 0.00 | 0.00 | 0.00 | 68 | 1014.6 |
| 20260904091011 | 73 | 225 | 6.0 | 10.0 | 0.00 | 0.01 | 0.00 | 69 | 1014.8 |
| 20260904085008 | 71 | 270 | 4.0 | 7.0 | 0.00 | 0.01 | 0.00 | 75 | 1015.2 |
| 20260904084009 | 70 | 270 | 4.0 | 8.0 | 0.00 | 0.01 | 0.00 | 78 | 1015.4 |
| 20260904083008 | 69 | 270 | 4.0 | 6.0 | 0.00 | 0.01 | 0.00 | 78 | 1015.4 |
| 20260904082009 | 68 | 270 | 5.0 | 9.0 | 0.00 | 0.01 | 0.00 | 80 | 1015.8 |
| 20260904081006 | 69 | 270 | 6.0 | 11.0 | 0.00 | 0.01 | 0.00 | 78 | 1015.8 |
| 20260904080014 | 68 | 270 | 6.0 | 10.0 | 0.00 | 0.01 | 0.00 | 79 | 1015.8 |
| 20260904074009 | 69 | 270 | 9.0 | 12.0 | 0.00 | 0.01 | 0.00 | 77 | 1015.7 |
| 20260904073007 | 69 | 270 | 6.0 | 10.0 | 0.00 | 0.01 | 0.00 | 75 | 1015.6 |
| 20260904071009 | 67 | 315 | 3.0 | 4.0 | 0.00 | 0.01 | 0.00 | 77 | 1016.0 |
| 20260904070023 | 67 | 225 | 3.0 | 4.0 | 0.00 | 0.01 | 0.00 | 81 | 1016.0 |
| 20260904065013 | 66 | 225 | 2.0 | 4.0 | 0.00 | 0.01 | 0.00 | 80 | 1016.0 |
| 20260904064010 | 66 | 0 | 1.0 | 3.0 | 0.00 | 0.01 | 0.00 | 82 | 1016.1 |
| 20260904063012 | 65 | 135 | 2.0 | 4.0 | 0.00 | 0.01 | 0.00 | 80 | 1015.9 |
| 20260904061011 | 63 | 0 | 0.0 | 2.0 | 0.00 | 0.01 | 0.00 | 86 | 1016.2 |
| 20260904060018 | 63 | 0 | 0.0 | 2.0 | 0.00 | 0.01 | 0.00 | 85 | 1016.5 |
| 20260904055006 | 62 | 0 | 0.0 | 1.0 | 0.00 | 0.01 | 0.00 | 88 | 1016.4 |
| 20260904054009 | 61 | 0 | 0.0 | 1.0 | 0.00 | 0.01 | 0.00 | 91 | 1016.4 |
| 20260904053012 | 60 | 0 | 0.0 | 1.0 | 0.00 | 0.01 | 0.00 | 93 | 1016.6 |
| 20260904052008 | 59 | 0 | 1.0 | 3.0 | 0.00 | 0.01 | 0.00 | 93 | 1016.6 |
| 20260904051007 | 58 | 0 | 0.0 | 1.0 | 0.00 | 0.01 | 0.00 | 94 | 1016.5 |
| 20260904050015 | 58 | 0 | 0.0 | 2.0 | 0.00 | 0.01 | 0.00 | 94 | 1016.3 |
| 20260904045008 | 58 | 0 | 0.0 | 1.0 | 0.00 | 0.01 | 0.00 | 93 | 1016.5 |
| 20260904044007 | 58 | 0 | 0.0 | 1.0 | 0.00 | 0.01 | 0.00 | 93 | 1016.5 |
| 20260904043011 | 58 | 0 | 0.0 | 1.0 | 0.00 | 0.01 | 0.00 | 93 | 1016.5 |
| 20260904042009 | 58 | 0 | 0.0 | 2.0 | 0.00 | 0.01 | 0.00 | 93 | 1016.5 |
| 20260904041006 | 58 | 0 | 0.0 | 2.0 | 0.00 | 0.01 | 0.00 | 93 | 1016.5 |
| 20260904040013 | 58 | 0 | 0.0 | 0.0 | 0.00 | 0.01 | 0.00 | 92 | 1016.3 |
| 20260904035010 | 58 | 0 | 0.0 | 1.0 | 0.00 | 0.01 | 0.00 | 92 | 1016.3 |
| 20260904034007 | 58 | 0 | 0.0 | 1.0 | 0.00 | 0.01 | 0.00 | 93 | 1016.5 |
| 20260904033009 | 58 | 0 | 0.0 | 2.0 | 0.00 | 0.01 | 0.00 | 92 | 1016.6 |
| 20260904032009 | 58 | 0 | 0.0 | 1.0 | 0.00 | 0.01 | 0.00 | 92 | 1016.5 |
| 20260904031006 | 58 | 0 | 0.0 | 1.0 | 0.00 | 0.01 | 0.00 | 91 | 1016.5 |
| 20260904030009 | 59 | 0 | 0.0 | 1.0 | 0.00 | 0.01 | 0.00 | 91 | 1016.6 |
| 20260904025007 | 59 | 0 | 0.0 | 2.0 | 0.00 | 0.01 | 0.00 | 90 | 1016.8 |
| 20260904024011 | 59 | 0 | 0.0 | 1.0 | 0.00 | 0.01 | 0.00 | 89 | 1016.8 |
| 20260904023007 | 60 | 0 | 0.0 | 2.0 | 0.00 | 0.01 | 0.00 | 89 | 1016.9 |
| 20260904022008 | 60 | 0 | 0.0 | 2.0 | 0.00 | 0.01 | 0.00 | 89 | 1016.8 |
| 20260904021008 | 60 | 0 | 1.0 | 2.0 | 0.00 | 0.01 | 0.00 | 89 | 1016.8 |
| 20260904020015 | 59 | 0 | 0.0 | 2.0 | 0.00 | 0.01 | 0.00 | 89 | 1016.8 |
| 20260904014008 | 59 | 0 | 0.0 | 1.0 | 0.00 | 0.01 | 0.00 | 89 | 1016.7 |
| 20260904012008 | 59 | 0 | 1.0 | 2.0 | 0.00 | 0.01 | 0.00 | 89 | 1016.6 |
| 20260904011008 | 59 | 0 | 1.0 | 2.0 | 0.00 | 0.01 | 0.00 | 89 | 1016.7 |
| 20260904010020 | 59 | 0 | 1.0 | 2.0 | 0.00 | 0.01 | 0.00 | 89 | 1016.8 |
| 20260904005005 | 60 | 0 | 0.0 | 1.0 | 0.00 | 0.01 | 0.00 | 88 | 1016.9 |
| 20260904004008 | 60 | 0 | 0.0 | 1.0 | 0.00 | 0.01 | 0.00 | 88 | 1017.0 |
| 20260904003011 | 59 | 0 | 0.0 | 1.0 | 0.00 | 0.01 | 0.00 | 88 | 1017.0 |
| 20260904002005 | 59 | 0 | 0.0 | 1.0 | 0.00 | 0.01 | 0.00 | 88 | 1017.2 |
| 20260904001008 | 59 | 0 | 0.0 | 1.0 | 0.00 | 0.01 | 0.00 | 87 | 1017.2 |
| 20260904000016 | 60 | 0 | 0.0 | 2.0 | 0.00 | 0.01 | 0.00 | 87 | 1017.3 |
| 20260903235005 | 59 | 0 | 0.0 | 1.0 | 0.00 | 0.01 | 0.00 | 86 | 1017.3 |
| 20260903234008 | 60 | 0 | 0.0 | 0.0 | 0.00 | 0.01 | 0.00 | 86 | 1017.3 |
| 20260903233010 | 60 | 0 | 0.0 | 0.0 | 0.00 | 0.01 | 0.00 | 85 | 1017.4 |
| 20260903232006 | 60 | 0 | 0.0 | 1.0 | 0.00 | 0.01 | 0.00 | 85 | 1017.5 |
| 20260903231008 | 60 | 0 | 0.0 | 1.0 | 0.00 | 0.01 | 0.00 | 84 | 1017.6 |
| 20260903230015 | 61 | 0 | 0.0 | 2.0 | 0.00 | 0.01 | 0.00 | 83 | 1017.3 |
| 20260903225008 | 61 | 0 | 0.0 | 2.0 | 0.00 | 0.01 | 0.00 | 82 | 1017.4 |
| 20260903224009 | 61 | 0 | 1.0 | 2.0 | 0.00 | 0.01 | 0.00 | 81 | 1017.5 |
| 20260903223011 | 62 | 0 | 1.0 | 2.0 | 0.00 | 0.01 | 0.00 | 81 | 1017.5 |
| 20260903222006 | 62 | 0 | 0.0 | 2.0 | 0.00 | 0.01 | 0.00 | 80 | 1017.5 |
| 20260903221006 | 62 | 0 | 1.0 | 2.0 | 0.00 | 0.01 | 0.00 | 80 | 1017.5 |
| 20260903213008 | 63 | 270 | 3.0 | 5.0 | 0.00 | 0.01 | 0.01 | 79 | 1017.5 |
| 20260903211006 | 64 | 270 | 2.0 | 5.0 | 0.00 | 0.01 | 0.01 | 77 | 1017.5 |
| 20260903210012 | 64 | 225 | 4.0 | 7.0 | 0.00 | 0.01 | 0.01 | 76 | 1017.4 |
| 20260903205006 | 65 | 135 | 4.0 | 8.0 | 0.00 | 0.01 | 0.01 | 75 | 1017.6 |
| 20260903204008 | 65 | 270 | 5.0 | 7.0 | 0.00 | 0.01 | 0.01 | 75 | 1017.7 |
| 20260903203008 | 64 | 45 | 6.0 | 9.0 | 0.00 | 0.01 | 0.01 | 75 | 1017.6 |
| 20260903202009 | 64 | 270 | 6.0 | 9.0 | 0.00 | 0.01 | 0.01 | 75 | 1017.5 |
| 20260903201006 | 65 | 270 | 6.0 | 9.0 | 0.00 | 0.02 | 0.01 | 74 | 1017.7 |
| 20260903200011 | 65 | 270 | 5.0 | 8.0 | 0.00 | 0.02 | 0.01 | 74 | 1017.8 |
| 20260903195006 | 65 | 135 | 7.0 | 10.0 | 0.00 | 0.02 | 0.01 | 73 | 1017.8 |
| 20260903193008 | 65 | 135 | 6.0 | 10.0 | 0.00 | 0.02 | 0.01 | 71 | 1017.7 |
| 20260903192008 | 66 | 270 | 7.0 | 11.0 | 0.00 | 0.02 | 0.01 | 70 | 1017.5 |
| 20260903191008 | 67 | 270 | 9.0 | 13.0 | 0.00 | 0.02 | 0.01 | 68 | 1017.4 |
| 20260903190016 | 68 | 270 | 10.0 | 14.0 | 0.00 | 0.02 | 0.01 | 67 | 1017.1 |
| 20260903185008 | 68 | 270 | 9.0 | 15.0 | 0.00 | 0.02 | 0.01 | 65 | 1017.1 |
| 20260903184008 | 67 | 135 | 8.0 | 12.0 | 0.00 | 0.02 | 0.01 | 67 | 1017.1 |
| 20260903183011 | 67 | 135 | 3.0 | 4.0 | 0.00 | 0.02 | 0.01 | 69 | 1016.8 |
| 20260903182006 | 66 | 270 | 2.0 | 4.0 | 0.00 | 0.02 | 0.01 | 71 | 1016.8 |
| 20260903181008 | 66 | 225 | 0.0 | 2.0 | 0.00 | 0.02 | 0.01 | 72 | 1016.7 |
| 20260903175008 | 66 | 225 | 0.0 | 1.0 | 0.00 | 0.02 | 0.01 | 70 | 1016.5 |
| 20260903174007 | 67 | 225 | 0.0 | 0.0 | 0.00 | 0.02 | 0.01 | 69 | 1016.4 |
| 20260903173011 | 67 | 225 | 0.0 | 2.0 | 0.00 | 0.02 | 0.01 | 70 | 1016.5 |
| 20260903172008 | 67 | 225 | 1.0 | 2.0 | 0.00 | 0.02 | 0.01 | 71 | 1016.6 |
| 20260903171007 | 67 | 270 | 1.0 | 3.0 | 0.00 | 0.02 | 0.01 | 68 | 1016.5 |
| 20260903165008 | 69 | 270 | 2.0 | 4.0 | 0.00 | 0.02 | 0.01 | 68 | 1016.7 |
| 20260903164009 | 69 | 270 | 3.0 | 5.0 | 0.00 | 0.02 | 0.01 | 66 | 1016.9 |
| 20260903163012 | 70 | 135 | 3.0 | 4.0 | 0.00 | 0.02 | 0.01 | 65 | 1016.6 |
| 20260903161007 | 71 | 225 | 1.0 | 4.0 | 0.00 | 0.02 | 0.01 | 64 | 1016.5 |
| 20260903160012 | 71 | 270 | 1.0 | 2.0 | 0.00 | 0.02 | 0.01 | 59 | 1016.8 |
| 20260903155006 | 71 | 270 | 0.0 | 1.0 | 0.00 | 0.02 | 0.01 | 64 | 1016.7 |
| 20260903154008 | 71 | 135 | 0.0 | 2.0 | 0.00 | 0.02 | 0.01 | 60 | 1016.7 |
| 20260903152007 | 71 | 0 | 1.0 | 3.0 | 0.00 | 0.02 | 0.01 | 59 | 1017.1 |
| 20260903150013 | 71 | 180 | 3.0 | 6.0 | 0.00 | 0.02 | 0.01 | 59 | 1017.0 |